#timestamp,LO_Frequency,Hit,StdDev 
1456419615.4,286046997.4,N
1456419635.2,286046998.1,N
1456419655.0,286046999.9,N
1456419655.9,286046999.9,N
1456419675.8,286046999.7,N
1456419695.6,286047000.3,N
1456419715.4,286046996.5,N
1456419735.2,286046996.9,N
1456419755.1,286046995.4,N
1456419756.0,286046995.4,N
1456419775.8,286046994.9,N
1456419795.6,286046999.2,N
1456419815.5,286046998.7,N
1456419835.3,286046998.4,N
1456419855.1,286046999.0,N
1456419875.9,286046999.5,N
1456419895.7,286046999.1,N
1456419915.5,286046996.8,N
1456419935.4,286046997.6,N
1456419955.2,286046996.6,N
1456419975.0,286046997.8,N
1456419975.9,286046997.8,N
1456419995.8,286047001.1,N
1456420015.6,286046999.5,N
1456420035.4,286046995.3,N
1456420055.2,286047001.2,N
1456420075.1,286046998.8,N
1456420076.0,286046998.8,N
1456420095.8,286046997.4,N
1456420115.6,286046996.9,N
1456420135.5,286046996.7,N
1456420155.3,286046997.0,N
1456420175.1,286046995.0,N
1456420195.9,286046995.9,N
1456420215.7,286046999.6,N
1456420235.5,286046997.7,N
1456420255.4,286046997.2,N
1456420275.2,286046998.4,N
1456420295.0,286046999.5,N
1456420295.9,286046999.5,N
1456420315.8,286046999.6,N
1456420335.6,286046999.4,N
1456420355.4,286047001.7,N
1456420375.3,286047002.1,N
1456420395.1,286046998.6,N
1456420396.0,286046998.6,N
1456420415.8,286047001.0,N
1456420435.7,286046999.7,N
1456420455.5,286046999.7,N
1456420475.3,286047004.4,N
1456420495.2,286047007.2,Y
1456420515.9,286047010.7,P
1456420535.7,286047008.8,N
1456420555.5,286047004.9,N
1456420575.4,286047003.9,N
1456420595.2,286047005.6,N
1456420615.0,286047003.3,N
1456420615.9,286047003.3,N
1456420635.8,286047004.9,N
1456420655.6,286047004.3,N
1456420675.4,286047002.7,N
1456420695.3,286047002.5,N
1456420715.1,286047005.3,N
1456420716.0,286047005.3,N
1456420735.8,286047004.1,N
1456420755.7,286047001.5,N
1456420775.5,286047002.7,N
1456420795.3,286047002.8,N
1456420815.2,286047000.0,N
1456420835.9,286046999.7,N
1456420855.7,286047000.7,N
1456420875.6,286047002.3,N
1456420895.4,286046999.2,N
1456420915.2,286046997.7,N
1456420935.0,286046995.2,N
1456420936.0,286046995.2,N
1456420955.8,286046996.6,N
1456420975.6,286046995.4,N
1456420995.4,286046995.6,N
1456421015.3,286047000.4,N
1456421035.1,286047002.6,N
1456421055.8,286046998.3,N
1456421075.7,286046999.6,N
1456421095.5,286046999.1,N
1456421115.3,286046996.5,N
1456421135.2,286046998.3,N
1456421155.9,286046997.0,N
1456421175.7,286046997.1,N
1456421195.6,286046997.7,N
1456421215.4,286046997.3,N
1456421235.2,286046997.0,N
1456421255.1,286046996.2,N
1456421256.0,286046996.2,N
1456421275.8,286046992.7,N
1456421295.6,286046991.5,Y
1456421315.5,286046993.0,P
1456421335.3,286046993.7,N
1456421355.1,286046992.4,P
1456421375.9,286046990.2,Y
1456421395.7,286046999.4,P
1456421415.5,286046998.1,N
1456421435.4,286046999.9,N
1456421455.2,286046999.5,N
1456421475.0,286046998.0,N
1456421475.9,286046998.0,N
1456421495.8,286046997.0,N
1456421515.6,286046996.6,N
1456421535.4,286046999.0,N
1456421555.2,286046997.3,N
1456421575.1,286046995.1,Y
1456421576.0,286046995.1,P
1456421595.8,286046999.3,N
1456421615.6,286046997.4,N
1456421635.5,286046995.3,Y
1456421655.3,286047000.3,P
1456421675.2,286047001.7,N
1456421695.9,286047002.5,N
1456421715.7,286047002.6,N
1456421735.5,286047000.1,N
1456421755.4,286047000.4,N
1456421775.2,286047002.5,N
1456421795.0,286046999.7,N
1456421795.9,286046999.7,N
1456421815.8,286047002.2,N
1456421835.6,286047001.5,N
1456421855.4,286047001.6,N
1456421875.3,286047001.3,N
1456421895.1,286047001.3,N
1456421896.0,286047001.3,N
1456421915.8,286047004.3,Y
1456421935.7,286047003.5,P
1456421955.5,286047004.4,P
1456421975.3,286047006.0,P
1456421995.2,286047003.1,N
1456422015.9,286047007.0,Y
1456422035.7,286047001.3,P
1456422055.6,286047001.9,N
1456422075.4,286047003.5,P
1456422095.2,286047002.9,N
1456422115.1,286047007.0,Y
1456422116.0,286047007.0,P
1456422135.8,286047003.5,N
1456422155.6,286047001.5,N
1456422175.5,286047004.0,N
1456422195.3,286047005.7,Y
1456422215.1,286047001.6,P
1456422235.9,286047000.5,N
1456422255.7,286047000.7,N
1456422275.5,286047002.1,N
1456422295.3,286047002.2,N
1456422315.2,286047002.8,N
1456422335.0,286047002.4,N
1456422335.9,286047002.4,N
1456422355.7,286047001.5,N
1456422375.6,286047002.5,N
1456422395.4,286047003.2,Y
1456422415.2,286047004.4,P
1456422435.1,286047003.7,P
1456422436.0,286047003.7,P
1456422455.8,286047005.2,Y
1456422475.7,286047001.9,P
1456422495.5,286047000.8,N
1456422515.3,286046999.5,N
1456422535.1,286046999.4,N
1456422555.9,286046997.3,N
1456422575.7,286046999.1,N
1456422595.5,286046999.2,N
1456422615.4,286046997.0,N
1456422635.2,286046996.5,N
1456422655.0,286046997.1,N
1456422655.9,286046997.1,N
1456422675.8,286046999.0,N
1456422695.6,286046997.4,N
1456422715.4,286046997.7,N
1456422735.3,286046995.6,N
1456422755.1,286046999.5,N
1456422756.0,286046999.5,N
1456422775.8,286046996.7,N
1456422795.7,286046999.6,N
1456422815.5,286046997.6,N
1456422835.3,286046995.3,N
1456422855.2,286046993.5,Y
1456422875.9,286046995.9,P
1456422895.7,286046990.7,P
1456422915.5,286046990.2,P
1456422935.4,286046990.1,N
1456422955.2,286046991.3,N
1456422975.0,286046991.6,N
1456422975.9,286046991.6,N
1456422995.8,286046987.7,Y
1456423015.6,286046997.7,P
1456423035.4,286046997.7,N
1456423055.3,286047001.0,N
1456423075.1,286047001.1,N
1456423095.8,286046997.0,N
1456423115.7,286047000.3,N
1456423135.5,286047000.4,N
1456423155.3,286046999.8,N
1456423175.2,286047005.1,N
1456423195.9,286047009.0,N
